Meteo Giornale » Osservazioni meteo Italia » Resia Pass

ore: 12:55 - Osservazioni Meteo Resia Pass
Lat. 46° 50' N Lon. 10° 30' E Alt. 1800 metri s.l.m.

nuvoloso Europe/Rome

-5 °C

Nuvoloso

Temp. 24 Ore

-9 °C

-3 °C

Nord/Nord-Est

13 Km/h

Dew point -10 °C

Umidità 67 %

Visibilità  7 Km

Il sole sorge alle ore 07:07

Il sole tramonta alle ore 17:54

Data e Ora Cielo e Fenomeni T °C DP °C Um. % Pres. hPa Vis. km Vento km/h
Oggi h: 12:55 nuvoloso Nuvoloso -5 -10 67 1002 7 N/NE 13
Oggi h: 11:55 foschia Foschia -5 -10 67 1002 5 N/NE 13
Oggi h: 10:55 foschia Foschia -7 -10 79 1002 5 N/NE 13
Oggi h: 09:55 foschia Foschia -8 -11 78 1002 5 N/NE 14.8
Oggi h: 08:55 foschia Foschia -9 -11 85 1002 5 NE 14.8
Oggi h: 07:55 nuvoloso Nuvoloso -9 -11 85 1002 7 N/NE 11.1
Oggi h: 06:55 nuvoloso Nuvoloso -9 -11 85 1003 10 NE 13
Oggi h: 05:55 poco_nuvoloso Poco Nuvoloso -9 -11 85 1003 10 NE 11.1
Oggi h: 04:55 sereno Sereno -9 -11 85 1004 10 N/NE 13
Oggi h: 03:55 sereno Sereno -9 -11 85 1004 10 NE 13
Oggi h: 02:55 sereno Sereno -9 -10 92 1005 10 N/NE 14.8
Oggi h: 01:55 sereno Sereno -9 -11 85 1006 10 N/NE 11.1
Oggi h: 00:55 sereno Sereno -8 -11 78 1006 10 N/NE 11.1
Ieri h: 23:55 sereno Sereno -8 -11 78 1006 10 N/NE 9.3
Ieri h: 22:55 sereno Sereno -7 -11 73 1006 10 NE 14.8
Ieri h: 21:55 sereno Sereno -7 -11 73 1007 10 NE 14.8
Ieri h: 20:55 poco_nuvoloso Poco Nuvoloso -7 -11 73 1007 10 NE 16.7
Ieri h: 19:55 sereno Sereno -7 -12 67 1007 10 N/NE 11.1
Ieri h: 17:55 poco_nuvoloso Poco Nuvoloso -6 -12 62 1006 10 NE 14.8
Ieri h: 16:55 poco_nuvoloso Poco Nuvoloso -5 -12 57 1006 10 N 14.8
Ieri h: 15:55 poco_nuvoloso Poco Nuvoloso -4 -12 53 1007 10 N/NE 18.5
Ieri h: 14:55 poco_nuvoloso Poco Nuvoloso -4 -12 53 1007 10 N/NE 14.8
Ieri h: 13:55 sereno Sereno -3 -11 53 1007 10 N/NE 16.7
Ieri h: 12:55 sereno Sereno -4 -12 53 1007 10 N 14.8